[[{"header":{"parameterUnit":"m.s-1","parameterCategory":1,"la1":30.2991,"la2":30.254,"lo1":-89.0895,"lo2":-89.0444,"dy":0.0017,"dx":0.0017,"nx":28,"ny":28,"refTime":"2025-03-07T09:00:00:Z","depth":0,"parameterNumber":2,"parameterNumberName":"U-component_of_WINDS"},"data":[0,0,0,0,0,0,0,0,0,0,0,0,0,0,0,0,0,0,0,0,0,0,0,0,0,0,0,0,0,0,0,0,0,0,0,0,0,0,0,0,0,0,0,0,0,0,0,0,0,0,0,0,0,0,0,0,0,0,1.222,1.222,0,1.226,1.226,1.2261,1.2203,1.2201,1.2199,1.2197,1.2244,1.2247,1.225,0,0,0,0,0,0,0,0,0,0,0,0,0,1.2099,1.2102,1.222,1.222,1.2221,1.226,1.226,1.2261,1.2204,1.2201,1.2199,1.2196,1.2243,1.2246,1.225,0,0,0,0,0,0,0,0,0,0,0,0,0,1.2147,1.2103,1.222,1.2197,1.2195,1.226,1.226,1.2261,1.2204,1.2201,1.2198,1.2195,1.2242,1.2246,1.2251,1.2342,0,0,1.2265,1.2267,0,0,0,0,0,0,0,0,1.2144,1.2152,1.22,1.2198,1.2197,1.2223,1.2235,1.2288,1.2205,1.2201,1.2197,1.2194,1.224,1.2244,1.2259,1.2344,1.2346,1.2266,1.2269,1.2271,1.2272,0,0,0,0,0,0,0,1.2141,1.2149,1.2236,1.22,1.2199,1.2186,1.219,1.2245,1.2237,1.2201,1.2197,1.2202,1.2238,1.2255,1.226,1.2346,1.2266,1.227,1.2273,1.2274,1.251,1.2513,0,0,0,0,0,0,1.214,1.2147,1.2234,1.2237,1.2162,1.2191,1.2195,1.2218,1.2236,1.2236,1.2205,1.2199,1.2248,1.2254,1.2261,1.237,1.2271,1.2275,1.2278,1.2506,1.251,1.2514,0,0,0,0,0,0,1.2137,1.2148,1.2233,1.2191,1.2201,1.2196,1.2223,1.222,1.2236,1.2239,1.2238,1.2222,1.2246,1.2254,1.2322,1.2371,1.2277,1.2281,1.2502,1.2508,1.2512,1.2588,0,0,0,0,0,0,1.2134,1.2148,1.2181,1.2192,1.2203,1.2292,1.2226,1.2223,1.2244,1.2237,1.2255,1.2255,1.2244,1.2315,1.2327,1.2376,1.2285,1.2498,1.2505,1.2511,1.2581,1.2595,1.2607,0,0,0,0,0,1.213,1.2201,1.2183,1.2194,1.2244,1.2295,1.2301,1.2285,1.2248,1.2282,1.2284,1.2255,1.2363,1.2323,1.2335,1.2386,1.2495,1.2503,1.251,1.2575,1.2592,1.2607,0,0,0,0,0,0,1.2198,1.2202,1.2182,1.2258,1.2276,1.2285,1.2327,1.2303,1.2334,1.2326,1.2307,1.2311,1.2384,1.2391,1.2346,1.2476,1.2423,1.2434,1.2468,1.2485,1.2497,1.2495,1.2289,0,0,0,0,0,1.2221,1.226,1.2262,1.233,1.234,1.2332,1.2354,1.2339,1.2358,1.2366,1.2373,1.2394,1.2432,1.2459,1.2494,1.2581,1.2586,1.2623,1.2636,1.2646,1.2656,1.2705,1.2722,1.2539,1.2539,1.2539,0,0,1.2271,1.2278,1.2304,1.2344,1.2356,1.2399,1.2339,1.2386,1.2419,1.2374,1.2438,1.2444,1.2466,1.2544,1.2579,1.2553,1.2707,1.2656,1.2664,1.2669,1.2714,1.2732,1.2747,1.2544,1.2544,1.2543,0,0,1.2383,1.2391,1.2449,1.2462,1.2481,1.2476,1.249,1.2502,1.2504,1.2567,1.2535,1.2574,1.264,1.2658,1.2676,1.2795,1.277,1.2807,1.2876,1.2923,1.2937,1.295,1.2995,1.3011,1.2817,1.2817,1.2817,0,1.2443,1.2504,1.2482,1.2532,1.2552,1.2511,1.2571,1.2585,1.2616,1.2631,1.2601,1.2684,1.2696,1.2779,1.2808,1.2823,1.284,1.2806,1.2937,1.2949,1.2961,1.3003,1.302,1.2822,1.2821,1.2821,1.282,0,1.2577,1.2621,1.2665,1.2694,1.2718,1.2773,1.2762,1.2789,1.2773,1.2772,1.2838,1.2851,1.2889,1.2907,1.2892,1.2988,1.2972,1.2939,1.2886,1.2983,1.3023,1.3039,1.2828,1.2827,1.2825,1.2824,0,0,1.2734,1.275,1.2767,1.2781,1.2799,1.2833,1.2886,1.2922,1.2947,1.2969,1.3015,1.3073,1.3043,1.3063,1.305,1.3091,1.3188,1.3054,1.3054,1.308,1.3297,1.3322,1.3341,1.317,1.3173,1.3175,1.3295,0,1.2848,1.2938,1.2921,1.3011,1.3052,1.3014,1.3061,1.3078,1.3078,1.3114,1.3115,1.3157,1.3113,1.3125,1.3164,1.3168,1.3231,1.3158,1.3215,1.3218,1.3213,1.3362,1.3389,1.3501,1.3311,1.3313,1.3315,0,1.2992,1.3019,1.3112,1.3125,1.3141,1.3184,1.3216,1.325,1.3269,1.3267,1.3289,1.3269,1.3324,1.3269,1.3346,1.3297,1.3319,1.3325,1.3329,1.3335,1.3274,1.3374,1.3537,1.3554,1.3339,1.3337,1.3335,0,1.31,1.3159,1.3223,1.3235,1.3251,1.3282,1.329,1.3306,1.3329,1.3358,1.3373,1.3408,1.3428,1.3457,1.3447,1.3407,1.3528,1.3471,1.3529,1.353,1.3558,1.3557,1.3728,1.3569,1.3569,1.3568,1.3568,0,1.3229,1.3289,1.3271,1.3311,1.3377,1.3357,1.3423,1.3427,1.3442,1.3484,1.3453,1.3493,1.3476,1.3516,1.3508,1.3575,1.3584,1.3585,1.3582,1.3589,1.3589,1.3604,1.3597,1.3573,1.3572,1.3571,1.357,0,1.3361,1.3352,1.3419,1.3428,1.3432,1.348,1.3489,1.3527,1.3524,1.3577,1.3589,1.3586,1.363,1.3623,1.3672,1.3667,1.3751,1.3738,1.3745,1.3742,1.3802,1.3797,1.3991,1.4016,1.3839,1.384,1.3842,0,1.3445,1.349,1.3503,1.3528,1.3538,1.3579,1.3602,1.3584,1.361,1.3636,1.3672,1.3714,1.3746,1.382,1.3823,1.3862,1.3851,1.3916,1.3856,1.3862,1.3854,1.3853,1.3858,1.3929,1.3931,1.3932,1.3934,0,1.3596,1.359,1.3623,1.3656,1.3684,1.3709,1.3732,1.3754,1.3739,1.377,1.3815,1.384,1.389,1.3933,1.3969,1.3979,1.3956,1.3952,1.3968,1.3976,1.3978,1.398,1.3779,1.3948,1.3947,1.3946,1.3945,1.3944,1.3708,1.3747,1.3762,1.3802,1.3816,1.3838,1.3875,1.3877,1.3913,1.3952,1.394,1.3991,1.4011,1.4057,1.4071,1.4112,1.4088,1.4111,1.4117,1.4123,1.4132,1.397,1.4119,1.4118,1.4118,1.4118,1.4117,0,1.3859,1.3867,1.3903,1.3936,1.3967,1.3939,1.3963,1.3992,1.4037,1.4056,1.4089,1.4141,1.4183,1.4189,1.4229,1.4261,1.4251,1.4272,1.4271,1.4274,1.415,1.4133,1.428,1.428,1.428,1.4279,1.4279,1.4279,1.3942,1.4006,1.4001,1.4073,1.4081,1.413,1.4147,1.4168,1.4183,1.4243,1.4276,1.428,1.4295,1.4336,1.4373,1.4374,1.4391,1.4417,1.4414,1.4299,1.4282,1.4267,1.4251,1.4421,1.4421,1.4535,1.4536,1.4537]},{"header":{"parameterUnit":"m.s-1","parameterCategory":1,"la1":30.2991,"la2":30.254,"lo1":-89.0895,"lo2":-89.0444,"dy":0.0017,"dx":0.0017,"nx":28,"ny":28,"refTime":"2025-03-07T09:00:00:Z","depth":0,"parameterNumber":3,"parameterNumberName":"V-component_of_WINDS"},"data":[0,0,0,0,0,0,0,0,0,0,0,0,0,0,0,0,0,0,0,0,0,0,0,0,0,0,0,0,0,0,0,0,0,0,0,0,0,0,0,0,0,0,0,0,0,0,0,0,0,0,0,0,0,0,0,0,0,0,4.3551,4.3553,0,4.37,4.3702,4.3703,4.3698,4.3696,4.3694,4.3692,4.3843,4.3849,4.3855,0,0,0,0,0,0,0,0,0,0,0,0,0,4.3262,4.3267,4.3551,4.3553,4.3555,4.37,4.3702,4.3704,4.3699,4.3696,4.3694,4.3691,4.3841,4.3848,4.3855,0,0,0,0,0,0,0,0,0,0,0,0,0,4.3397,4.3269,4.3551,4.357,4.3573,4.3699,4.3702,4.3704,4.3699,4.3696,4.3693,4.369,4.3839,4.3847,4.3856,4.3973,0,0,4.3883,4.3887,0,0,0,0,0,0,0,0,4.3389,4.3407,4.3565,4.3569,4.3573,4.3677,4.3655,4.3794,4.37,4.3651,4.3692,4.3689,4.379,4.3803,4.3838,4.398,4.3986,4.3884,4.389,4.3893,4.3896,0,0,0,0,0,0,0,4.338,4.3401,4.361,4.3568,4.3572,4.3571,4.3586,4.3681,4.3736,4.3655,4.3655,4.3673,4.3792,4.3829,4.3841,4.3989,4.3884,4.3892,4.3897,4.3901,4.4234,4.4237,0,0,0,0,0,0,4.3367,4.3393,4.3605,4.3614,4.3471,4.3578,4.3596,4.3647,4.3735,4.3746,4.3675,4.3672,4.3815,4.3831,4.3846,4.3989,4.3893,4.3902,4.3907,4.4231,4.4235,4.4239,0,0,0,0,0,0,4.336,4.3386,4.3599,4.3504,4.3531,4.3587,4.3644,4.3651,4.3689,4.375,4.376,4.3704,4.3814,4.3834,4.3942,4.3994,4.3906,4.3914,4.4227,4.4232,4.4237,4.4276,0,0,0,0,0,0,4.3352,4.3383,4.3429,4.3505,4.3536,4.3693,4.3647,4.3657,4.3704,4.3701,4.3779,4.3789,4.3813,4.3928,4.395,4.4005,4.3921,4.4222,4.4229,4.4235,4.427,4.4282,4.4292,0,0,0,0,0,4.3342,4.3433,4.3431,4.3457,4.3594,4.3696,4.3713,4.3739,4.3708,4.3754,4.3794,4.3787,4.3985,4.3939,4.3964,4.4022,4.4219,4.4227,4.4235,4.4265,4.4279,4.4291,0,0,0,0,0,0,4.3361,4.3444,4.3442,4.3561,4.3621,4.3695,4.3753,4.3753,4.3823,4.3817,4.3845,4.3863,4.3971,4.4007,4.3955,4.414,4.4098,4.4111,4.4113,4.4127,4.4137,4.4127,4.3928,0,0,0,0,0,4.338,4.3456,4.3523,4.3622,4.3652,4.3697,4.3743,4.3757,4.382,4.3846,4.3893,4.3955,4.4031,4.4081,4.4154,4.4275,4.4292,4.4327,4.4337,4.4346,4.4358,4.4424,4.4441,4.4265,4.4265,4.4264,0,0,4.3418,4.3472,4.3519,4.3627,4.3676,4.3754,4.3719,4.3803,4.3861,4.3858,4.3964,4.4,4.4071,4.4186,4.4238,4.4219,4.441,4.4356,4.4363,4.437,4.4434,4.4451,4.4466,4.427,4.4269,4.4268,0,0,4.3528,4.3577,4.3664,4.3714,4.3787,4.3817,4.3838,4.3911,4.3936,4.4042,4.4042,4.411,4.4241,4.4291,4.4334,4.4462,4.4459,4.4485,4.4542,4.4607,4.4621,4.4634,4.468,4.4696,4.4496,4.4496,4.4497,0,4.3566,4.3684,4.3709,4.3794,4.3842,4.3843,4.3932,4.3978,4.4072,4.4105,4.4082,4.4246,4.4293,4.442,4.4451,4.4486,4.451,4.4477,4.4617,4.463,4.4642,4.4687,4.4704,4.4499,4.4499,4.4499,4.4498,0,4.3728,4.381,4.3872,4.3963,4.4017,4.4104,4.4141,4.4193,4.4202,4.4234,4.4342,4.4399,4.4484,4.4515,4.4524,4.4643,4.4629,4.4611,4.457,4.4661,4.4704,4.4721,4.4503,4.4502,4.4501,4.4501,0,0,4.3856,4.3959,4.3982,4.4023,4.4105,4.4168,4.4254,4.4338,4.4382,4.4446,4.4519,4.4629,4.4614,4.4662,4.4677,4.4734,4.4833,4.471,4.4712,4.4731,4.4968,4.4981,4.5001,4.483,4.4834,4.4836,4.4962,0,4.3975,4.4129,4.4153,4.4288,4.4364,4.4366,4.4441,4.4499,4.453,4.4599,4.4633,4.4712,4.4684,4.4714,4.477,4.4809,4.4881,4.48,4.4899,4.4902,4.4882,4.5023,4.5038,4.5154,4.4979,4.4982,4.4984,0,4.4135,4.4204,4.4347,4.4418,4.4451,4.4518,4.4596,4.4662,4.4727,4.4746,4.48,4.4809,4.4897,4.4851,4.4974,4.4919,4.496,4.4985,4.499,4.5002,4.4949,4.5039,4.5191,4.5209,4.501,4.5008,4.5006,0,4.4215,4.4343,4.4445,4.4481,4.4566,4.4613,4.4651,4.4713,4.4762,4.483,4.4862,4.494,4.4982,4.5042,4.5071,4.5034,4.5192,4.5148,4.5211,4.521,4.5245,4.5242,4.5407,4.527,4.5269,4.5269,4.5269,0,4.4346,4.4433,4.4482,4.4545,4.4643,4.467,4.4766,4.4802,4.4858,4.4927,4.4933,4.4998,4.5032,4.5102,4.5125,4.5224,4.5242,4.526,4.5266,4.5261,4.5259,4.5289,4.5282,4.5274,4.5273,4.5272,4.5271,0,4.4452,4.4488,4.46,4.4672,4.4692,4.4761,4.4822,4.4883,4.4914,4.5002,4.5024,4.5073,4.5156,4.519,4.5291,4.5307,4.542,4.5419,4.5398,4.54,4.5461,4.5455,4.5652,4.568,4.5523,4.5525,4.5526,0,4.4534,4.4601,4.468,4.4728,4.4767,4.4843,4.4893,4.4922,4.4973,4.5053,4.5104,4.5187,4.5255,4.5387,4.5431,4.5508,4.551,4.5573,4.5521,4.5514,4.5512,4.5508,4.5515,4.5583,4.5585,4.5586,4.5587,0,4.4676,4.469,4.4762,4.4841,4.49,4.4963,4.5025,4.5063,4.5101,4.5159,4.5244,4.5296,4.54,4.5482,4.5562,4.56,4.5601,4.5603,4.5621,4.5618,4.5604,4.5613,4.5426,4.5598,4.5597,4.5596,4.5596,4.5595,4.4773,4.4833,4.4898,4.4978,4.5027,4.5085,4.5146,4.5184,4.5256,4.5343,4.5355,4.5446,4.551,4.5617,4.5658,4.573,4.5714,4.574,4.5748,4.5754,4.5759,4.5591,4.5744,4.5744,4.5744,4.5743,4.5743,0,4.4916,4.4958,4.5031,4.5117,4.518,4.5174,4.5242,4.5295,4.5375,4.5434,4.5501,4.5599,4.5678,4.5728,4.5809,4.5856,4.5858,4.5876,4.5874,4.5883,4.5768,4.5744,4.5873,4.5873,4.5873,4.5873,4.5873,4.5873,4.4998,4.5099,4.5122,4.5248,4.5289,4.5379,4.5418,4.5471,4.5518,4.5627,4.5694,4.5726,4.5781,4.5866,4.5938,4.5951,4.5981,4.6,4.6012,4.5904,4.5891,4.5878,4.5856,4.6006,4.6006,4.6121,4.6122,4.6122]}]]